Regional Weather Roundup
Issued by NWS Boston, MA

Current Version | Previous Version | Text Only | Print | Product List | Glossary Off
Versions: 1 2 3 4 5 6 7 8 9 10 11 12 13 14 15 16 17 18 19 20 21 22 23 24 25 26 27 28 29 30 31 32 33 34 35 36 37 38 39 40 41 42 43 44 45 46 47 48 49 50
000 ASUS41 KBOX 171010 RWRBOX REGIONAL WEATHER ROUNDUP NATIONAL WEATHER SERVICE BOSTON/NORTON MA 500 AM EST SAT NOV 17 2018 NOTE: "FAIR" INDICATES FEW OR NO CLOUDS BELOW 12,000 FEET WITH NO SIGNIFICANT WEATHER AND/OR OBSTRUCTIONS TO VISIBILITY. MAZALL-171100- EASTERN MASSACHUSETTS CITY SKY/WX TMP DP RH WIND PRES REMARKS BOSTON FAIR 41 31 67 SW13 29.92R BEVERLY FAIR 37 28 70 W7 29.90R WCI 32 LAWRENCE FAIR 39 29 67 SW13 29.91R WCI 31 BEDFORD CLOUDY 39 29 67 SW8 29.91R BLUE HILL N/A 35 30 82 W14 29.90R WCI 26 NORWOOD CLOUDY 40 32 73 SW6 29.93R MARSHFIELD FAIR 37 32 81 W6 29.93R PLYMOUTH FAIR 38 30 73 SW7 29.94R TAUNTON FAIR 38 30 73 SW6 29.95R NEW BEDFORD MOCLDY 38 33 82 SW10 29.95R WCI 31 $$ MAZALL-171100- CAPE COD AND THE ISLANDS CITY SKY/WX TMP DP RH WIND PRES REMARKS FALMOUTH FAIR 37 32 81 W9G18 29.96R WCI 31 HYANNIS FAIR 38 32 79 W9 29.94R WCI 31 CHATHAM FAIR 38 31 76 VRB6 29.95R PROVINCETOWN FAIR 41 34 76 W18G26 29.93R NANTUCKET FAIR 42 30 62 W16 29.96R MARTHAS VNYRD MOCLDY 43 32 65 W12 29.97R $$ MAZALL-171100- CENTRAL AND WESTERN MASSACHUSETTS CITY SKY/WX TMP DP RH WIND PRES REMARKS WORCESTER CLOUDY 36 29 75 W14G21 29.89R WCI 27 FITCHBURG CLOUDY 37 30 75 CALM 29.92R ORANGE CLOUDY 40 29 64 W7 29.92R SPRINGFIELD CLOUDY 38 29 72 W6 29.94R WESTFIELD CLOUDY 40 28 62 W8 29.95R NORTH ADAMS CLOUDY 37 31 78 W12 29.94R WCI 29 PITTSFIELD CLOUDY 36 28 73 W12 29.91R WCI 28 $$ RIZALL-171100- RHODE ISLAND CITY SKY/WX TMP DP RH WIND PRES REMARKS PROVIDENCE MOCLDY 36 30 79 SW7 29.97R WCI 30 NEWPORT FAIR 38 31 76 VRB5 29.97R BLOCK ISLAND FAIR N/A N/A N/A W14G22 30.00R SMITHFIELD CLOUDY 36 30 79 VRB5 29.94R WESTERLY FAIR 40 32 73 W8G17 29.99R $$ CTZALL-171100- CONNECTICUT CITY SKY/WX TMP DP RH WIND PRES REMARKS BRADLEY INTL FAIR 37 30 75 S5 29.97R HARTFORD FAIR 38 31 76 SW5 29.99R BRIDGEPORT CLOUDY 40 32 73 W9 30.02R DANBURY CLOUDY 39 30 70 W6 30.01R GROTON FAIR 39 31 72 W12 29.99R WCI 32 NEW HAVEN CLOUDY 41 33 73 W10 30.01R CHESTER FAIR 36 30 80 W7 29.99R WCI 30 MERIDEN FAIR 30 27 88 SE3 30.00R WILLIMANTIC FAIR 36 31 82 SW5 29.97R OXFORD CLOUDY 37 30 75 VRB5 29.98R $$ MEZ002-015-021-024-NHZ003-005-008-011-012-014-VTZ005-008-171100- NORTHERN NEW ENGLAND CITY SKY/WX TMP DP RH WIND PRES REMARKS PORTLAND ME FAIR 33 29 85 SW7 29.83R WCI 27 BANGOR ME CLOUDY 26 24 92 CALM 29.77R CONCORD NH CLOUDY 30 27 88 S6 29.87R WCI 24 MANCHESTER NH MOCLDY 32 29 88 S5 29.88R WCI 27 NASHUA NH NOT AVBL PORTSMOUTH NH MOCLDY 35 28 77 SW8 29.86R WCI 28 JAFFREY NH CLOUDY 37 30 75 S3 29.88R KEENE NH CLOUDY 37 31 78 S6 29.91R BURLINGTON VT CLOUDY 35 32 88 CALM 29.88R MT. WASHINGTON BLWGSNOW 14 14 100 W76G87 N/A VSB 0 WCI -15 $$ NYZ052-076-171100- EASTERN NEW YORK CITY SKY/WX TMP DP RH WIND PRES REMARKS ALBANY DRIZZLE 37 30 75 S5 29.98R NEW YORK CITY CLOUDY 41 30 65 W16 30.06R $$ ANZALL-171100- MARINE OBSERVATIONS STATION/POSITION TIME TEMP WIND PRES VSBY WAVE AIR SEA DIR/SP/G HT/PER (UTC) (F) (DEG/KT/KT) (MB) (MI) (FT/S) BOSTON BUOY 0950 42 51 240/ 17/ 21 1011.9R 4/11 BUZZARDS BAY 0900 44 270/ 24/ 27 1014.3R NANTUCKET SOUND 0950 45 49 270/ 19/ 25 1014.3R 3/ 4 MASS BAY-STELLWA 0904 43 49 270/ 21/ 25 1010.1R 1 7/8 6/11 ISLE OF SHOALS 0900 39 230/ 22/ 23 1009.8R S OF BLOCK IS 0943 56 N/A 9/ 9 $$ ......................KEY......................... SKY/WX - SKY CONDITION/PRESENT WEATHER TMP - TEMPERATURE IN FAHRENHEIT DWPT - DEWPOINT IN FAHRENHEIT RH - RELATIVE HUMIDITY IN PERCENT WIND - DIRECTION AND SPEED IN MPH PRES - MEAN SEA LEVEL PRESSURE IN INCHES OF HG WCI - WIND CHILL INDEX VSB - VISIBILITY IN MILES HX - HEAT INDEX TC - TEMPERATURE IN CELSIUS VRB - VARIABLE WIND DIRECTION N/A - NOT AVAILABLE

USA.gov is the U.S. government's official web portal to all federal, state and local government web resources and services.